Home   Weather   Cranbrook   Past weeks
Flag for Canada

Past Weather in Cranbrook, British Columbia, Canada — Yesterday and Last 2 Weeks

Now
66 °F

Broken clouds.


Feels Like: 66 °F
Forecast: 67 / 44 °F
Wind: 12 mph from Northwest

Location: Cranbrook

Current Time: Jul 19, 2019 at 3:10:50 pm

Latest Report: Jul 19, 2019 at 2:00 pm


Visibility: 25 mi

Pressure: 29.91 "Hg (26.82 "Hg at 933m altitude)

Humidity: 30%

Dew Point: 34 °F

Location of CranbrookLocation

Past Weather in Cranbrook — Graph

°F

Cranbrook Temperature Yesterday

Maximum temperature yesterday: 66 °F (at 3:00 pm)
Minimum temperature yesterday: 50 °F (at 5:00 am)
Average temperature yesterday: 57 °F

High & Low Weather Summary for the Past Weeks

 TemperatureHumidityPressure
High82 °F (Jul 13, 4:00 pm)100% (Jul 5, 1:00 am)30.24 "Hg (Jul 5, 1:00 am)
Low45 °F (Jul 19, 6:00 am)16% (Jul 14, 3:00 pm)29.71 "Hg (Jul 18, 2:00 pm)
Average62 °F65%29.96 "Hg
* Reported Jul 4 2:00 pm — Jul 19 2:00 pm, Cranbrook. Weather by CustomWeather, © 2019

Note: Actual official high and low records may vary slightly from our data, if they occured in-between our weather recording intervals... More about our weather records

Advertising

Cranbrook Weather History for the Previous 24 Hours

Scroll right to see more
 ConditionsComfort  
Time TempWeatherWind HumidityBarometerVisibility
2:00 pm
Fri, Jul 19
66 °FBroken clouds.12 mph30%29.91 "Hg25 mi
1:00 pm64 °FBroken clouds.9 mph30%29.92 "Hg25 mi
12:00 pm63 °FBroken clouds.6 mph42%29.92 "Hg25 mi
11:00 am59 °FBroken clouds.3 mph48%29.93 "Hg25 mi
10:03 am55 °FBroken clouds.2 mph51%29.93 "Hg25 mi
9:00 am52 °FScattered clouds.No wind58%29.93 "Hg25 mi
8:00 am46 °FBroken clouds.5 mph71%29.92 "Hg25 mi
7:00 am46 °FScattered clouds.6 mph66%29.91 "Hg25 mi
6:00 am45 °FPassing clouds.7 mph71%29.90 "Hg25 mi
5:00 am48 °FPassing clouds.8 mph62%29.89 "Hg25 mi
4:00 am48 °FPassing clouds.8 mph62%29.90 "Hg25 mi
3:00 am46 °FPassing clouds.5 mph71%29.88 "Hg25 mi
2:00 am50 °FPassing clouds.7 mph62%29.88 "Hg25 mi
1:00 am50 °FClear.5 mph62%29.88 "Hg25 mi
12:00 am54 °FPassing clouds.8 mph51%29.87 "Hg25 mi
11:00 pm
Thu, Jul 18
55 °FPassing clouds.5 mph47%29.87 "Hg25 mi
10:00 pm59 °FPassing clouds.6 mph39%29.86 "Hg25 mi
9:00 pm61 °FScattered clouds.7 mph36%29.86 "Hg25 mi
8:00 pm63 °FScattered clouds.12 mph34%29.85 "Hg25 mi
7:00 pm64 °FScattered clouds.8 mph30%29.83 "Hg25 mi
6:00 pm64 °FScattered clouds.18 mph30%29.83 "Hg25 mi
5:00 pm63 °FScattered clouds.8 mph37%29.82 "Hg25 mi
4:00 pm59 °FBroken clouds.17 mph48%29.80 "Hg25 mi
3:00 pm66 °FPartly sunny.13 mph32%29.71 "Hg25 mi
Weather by CustomWeather, © 2019

See weather overview